Location: Mitty Observatory
(35.9148°N, 88.8847°W)
Time: 03:37:35
(UTC-05:00)

ISS - Visible Passes

Search period start: 21 March 2019 00:00
Search period end: 31 March 2019 00:00
Orbit: 406 x 411 km, 51.6° (Epoch: 21 March)

Date Brightness Start Highest point End Pass type
(mag) Time Alt. Az. Time Alt. Az. Time Alt. Az.
21 Mar -3.0 20:35:27 10° WSW 20:38:39 48° NW 20:40:02 28° NNE visible
22 Mar -3.9 19:44:17 10° SW 19:47:34 81° SE 19:50:52 10° NE visible
22 Mar -0.8 21:22:39 10° WNW 21:24:30 14° NNW 21:24:35 14° NNW visible
23 Mar -1.4 20:30:35 10° W 20:33:11 21° NNW 20:35:48 10° NNE visible
24 Mar -2.2 19:38:53 10° WSW 19:41:57 35° NW 19:45:02 10° NNE visible
25 Mar -0.8 20:26:36 10° NW 20:27:51 12° NNW 20:29:07 10° N visible
26 Mar -1.1 19:34:12 10° WNW 19:36:29 17° NNW 19:38:46 10° NNE visible
